[[{"header":{"parameterUnit":"m.s-1","parameterCategory":1,"la1":30.2991,"la2":30.254,"lo1":-89.0895,"lo2":-89.0444,"dy":0.0017,"dx":0.0017,"nx":28,"ny":28,"refTime":"2025-08-09T21:00:00:Z","depth":0,"parameterNumber":2,"parameterNumberName":"U-component_of_WINDS"},"data":[0,0,0,0,0,0,0,0,0,0,0,0,0,0,0,0,0,0,0,0,0,0,0,0,0,0,0,0,0,0,0,0,0,0,0,0,0,0,0,0,0,0,0,0,0,0,0,0,0,0,0,0,0,0,0,0,0,0,-3.6644,-3.6645,0,-3.6815,-3.6817,-3.6819,-3.6786,-3.6783,-3.678,-3.6777,-3.6969,-3.6977,-3.6985,0,0,0,0,0,0,0,0,0,0,0,0,0,-3.6308,-3.6314,-3.6643,-3.6646,-3.6648,-3.6814,-3.6817,-3.6819,-3.6787,-3.6783,-3.6779,-3.6776,-3.6967,-3.6976,-3.6986,0,0,0,0,0,0,0,0,0,0,0,0,0,-3.6465,-3.6317,-3.6643,-3.6651,-3.6654,-3.6814,-3.6817,-3.682,-3.6788,-3.6783,-3.6778,-3.6774,-3.6964,-3.6975,-3.6987,-3.7155,0,0,-3.7024,-3.7029,0,0,0,0,0,0,0,0,-3.6456,-3.6477,-3.6648,-3.6651,-3.6654,-3.6774,-3.6769,-3.6933,-3.6789,-3.6737,-3.6777,-3.6772,-3.6909,-3.6926,-3.6968,-3.7164,-3.7172,-3.7025,-3.7032,-3.7038,-3.7041,0,0,0,0,0,0,0,-3.6445,-3.6469,-3.6712,-3.6651,-3.6654,-3.6653,-3.667,-3.68,-3.6848,-3.6741,-3.6739,-3.6759,-3.691,-3.6957,-3.6973,-3.7175,-3.7025,-3.7035,-3.7043,-3.7048,-3.7524,-3.7529,0,0,0,0,0,0,-3.6429,-3.6461,-3.6706,-3.6717,-3.6541,-3.6663,-3.6682,-3.6741,-3.6846,-3.6858,-3.6763,-3.6757,-3.6939,-3.6959,-3.6979,-3.7185,-3.7037,-3.7049,-3.7056,-3.7518,-3.7525,-3.7531,0,0,0,0,0,0,-3.6422,-3.6451,-3.6699,-3.6588,-3.662,-3.6673,-3.674,-3.6746,-3.6793,-3.6862,-3.6873,-3.68,-3.6936,-3.6962,-3.7112,-3.7191,-3.7054,-3.7065,-3.7512,-3.752,-3.7528,-3.7596,0,0,0,0,0,0,-3.6412,-3.6448,-3.6508,-3.6589,-3.6626,-3.6823,-3.6745,-3.6753,-3.6811,-3.6805,-3.69,-3.6912,-3.6934,-3.7094,-3.7124,-3.7205,-3.7075,-3.7505,-3.7516,-3.7525,-3.7587,-3.7606,-3.7622,0,0,0,0,0,-3.64,-3.6523,-3.6511,-3.6541,-3.67,-3.6827,-3.6849,-3.6866,-3.6818,-3.6881,-3.6927,-3.6909,-3.7178,-3.7109,-3.7143,-3.7229,-3.75,-3.7513,-3.7524,-3.7579,-3.7602,-3.7621,0,0,0,0,0,0,-3.6454,-3.6534,-3.6521,-3.6672,-3.6743,-3.6821,-3.6901,-3.689,-3.6979,-3.697,-3.6995,-3.7017,-3.7169,-3.7215,-3.7137,-3.74,-3.7333,-3.7353,-3.7364,-3.7386,-3.7403,-3.7388,-3.7085,0,0,0,0,0,-3.6482,-3.6573,-3.6641,-3.6769,-3.6804,-3.6847,-3.6903,-3.6911,-3.6987,-3.7018,-3.7075,-3.7154,-3.7257,-3.7325,-3.7423,-3.7595,-3.7618,-3.7672,-3.7689,-3.7703,-3.7719,-3.7818,-3.7843,-3.7571,-3.7571,-3.757,0,0,-3.6544,-3.6599,-3.6655,-3.6781,-3.6836,-3.6935,-3.6872,-3.6979,-3.7055,-3.7036,-3.7178,-3.7224,-3.7316,-3.7477,-3.7552,-3.752,-3.78,-3.7718,-3.7729,-3.7738,-3.7833,-3.7858,-3.7881,-3.7579,-3.7578,-3.7576,0,0,-3.6706,-3.6755,-3.6868,-3.6925,-3.7008,-3.7036,-3.7064,-3.7145,-3.7173,-3.7316,-3.7305,-3.74,-3.7575,-3.7641,-3.7698,-3.7891,-3.7879,-3.7924,-3.8013,-3.8109,-3.813,-3.815,-3.8221,-3.8246,-3.794,-3.794,-3.794,0,-3.6773,-3.6916,-3.6929,-3.7037,-3.7095,-3.7079,-3.7197,-3.7254,-3.7368,-3.7411,-3.7373,-3.7595,-3.7656,-3.7834,-3.7881,-3.7928,-3.7964,-3.7911,-3.8125,-3.8145,-3.8163,-3.8231,-3.8257,-3.7945,-3.7945,-3.7944,-3.7944,0,-3.6996,-3.7096,-3.7179,-3.7283,-3.7351,-3.7464,-3.7501,-3.7569,-3.7574,-3.7608,-3.7758,-3.783,-3.7944,-3.7988,-3.7995,-3.817,-3.8148,-3.8118,-3.8051,-3.8193,-3.8258,-3.8284,-3.7952,-3.795,-3.7949,-3.7948,0,0,-3.7193,-3.7305,-3.7335,-3.7383,-3.7477,-3.7558,-3.7675,-3.7781,-3.784,-3.7922,-3.8023,-3.8174,-3.8147,-3.8212,-3.8228,-3.8312,-3.8464,-3.8272,-3.8275,-3.8306,-3.8665,-3.8686,-3.8716,-3.8457,-3.8462,-3.8466,-3.8658,0,-3.7364,-3.756,-3.7578,-3.7757,-3.7853,-3.7842,-3.7945,-3.8017,-3.8054,-3.8147,-3.8191,-3.8298,-3.8253,-3.8293,-3.8376,-3.8427,-3.8536,-3.8414,-3.8556,-3.8561,-3.8531,-3.8749,-3.8771,-3.8948,-3.8683,-3.8687,-3.869,0,-3.7588,-3.767,-3.7858,-3.794,-3.7982,-3.8072,-3.8173,-3.826,-3.8345,-3.8367,-3.8441,-3.8446,-3.8573,-3.8503,-3.8681,-3.8598,-3.8659,-3.8694,-3.8701,-3.8714,-3.8633,-3.8769,-3.9005,-3.9031,-3.873,-3.8727,-3.8724,0,-3.7713,-3.7873,-3.8006,-3.8049,-3.8148,-3.8213,-3.8259,-3.8338,-3.8402,-3.8495,-3.8538,-3.8645,-3.8705,-3.8791,-3.8828,-3.8773,-3.9007,-3.8938,-3.9033,-3.9032,-3.908,-3.9076,-3.9329,-3.9121,-3.912,-3.912,-3.9119,0,-3.7902,-3.8017,-3.8064,-3.8145,-3.8277,-3.8301,-3.8433,-3.8477,-3.8549,-3.8645,-3.8646,-3.8737,-3.878,-3.888,-3.8912,-3.9057,-3.9084,-3.9109,-3.9116,-3.9108,-3.9105,-3.9147,-3.9136,-3.9127,-3.9125,-3.9124,-3.9123,0,-3.8062,-3.8098,-3.8242,-3.8325,-3.8349,-3.8443,-3.8517,-3.86,-3.8638,-3.8759,-3.879,-3.8851,-3.897,-3.9015,-3.9162,-3.9183,-3.9351,-3.9348,-3.932,-3.9321,-3.9413,-3.9404,-3.9701,-3.9743,-3.9507,-3.9509,-3.9511,0,-3.8179,-3.8267,-3.8359,-3.842,-3.8467,-3.8566,-3.8631,-3.8661,-3.873,-3.8836,-3.8908,-3.9025,-3.9119,-3.9311,-3.9373,-3.9486,-3.9486,-3.9583,-3.9504,-3.9494,-3.9489,-3.9483,-3.9493,-3.9597,-3.96,-3.9602,-3.9603,0,-3.8384,-3.8397,-3.8487,-3.8586,-3.8662,-3.8743,-3.8821,-3.8874,-3.8917,-3.8996,-3.9114,-3.9187,-3.9336,-3.9454,-3.9571,-3.9626,-3.9625,-3.9628,-3.9656,-3.9648,-3.9628,-3.9641,-3.9359,-3.9621,-3.9619,-3.9618,-3.9617,-3.9616,-3.8527,-3.8605,-3.8682,-3.8784,-3.8846,-3.892,-3.9002,-3.905,-3.9147,-3.9266,-3.9281,-3.9409,-3.9499,-3.9654,-3.9715,-3.9821,-3.9796,-3.9836,-3.9846,-3.9856,-3.9862,-3.9612,-3.9843,-3.9842,-3.9842,-3.9842,-3.9841,0,-3.8731,-3.878,-3.8874,-3.8982,-3.9065,-3.9051,-3.9139,-3.9211,-3.9321,-3.9402,-3.9494,-3.9634,-3.9749,-3.9821,-3.9939,-4.0011,-4.0013,-4.0041,-4.0036,-4.0049,-3.9877,-3.9841,-4.0037,-4.0037,-4.0037,-4.0037,-4.0037,-4.0037,-3.8847,-3.898,-3.9004,-3.9171,-3.9222,-3.9342,-3.9394,-3.9465,-3.9529,-3.9682,-3.9776,-3.9821,-3.9901,-4.0025,-4.0133,-4.0152,-4.0197,-4.0226,-4.0244,-4.0081,-4.0061,-4.0041,-4.0007,-4.0235,-4.0236,-4.0407,-4.0409,-4.041]},{"header":{"parameterUnit":"m.s-1","parameterCategory":1,"la1":30.2991,"la2":30.254,"lo1":-89.0895,"lo2":-89.0444,"dy":0.0017,"dx":0.0017,"nx":28,"ny":28,"refTime":"2025-08-09T21:00:00:Z","depth":0,"parameterNumber":3,"parameterNumberName":"V-component_of_WINDS"},"data":[0,0,0,0,0,0,0,0,0,0,0,0,0,0,0,0,0,0,0,0,0,0,0,0,0,0,0,0,0,0,0,0,0,0,0,0,0,0,0,0,0,0,0,0,0,0,0,0,0,0,0,0,0,0,0,0,0,0,-2.2902,-2.2902,0,-2.2886,-2.2885,-2.2885,-2.2806,-2.2804,-2.2802,-2.28,-2.2785,-2.2786,-2.2787,0,0,0,0,0,0,0,0,0,0,0,0,0,-2.2866,-2.2868,-2.2902,-2.2902,-2.2902,-2.2886,-2.2885,-2.2885,-2.2806,-2.2804,-2.2802,-2.2799,-2.2784,-2.2786,-2.2788,0,0,0,0,0,0,0,0,0,0,0,0,0,-2.2869,-2.2868,-2.2902,-2.286,-2.2856,-2.2886,-2.2885,-2.2885,-2.2807,-2.2804,-2.2801,-2.2798,-2.2784,-2.2786,-2.2788,-2.2857,0,0,-2.2794,-2.2795,0,0,0,0,0,0,0,0,-2.2869,-2.2871,-2.2867,-2.2863,-2.2859,-2.2845,-2.2867,-2.2876,-2.2807,-2.2826,-2.28,-2.2797,-2.2807,-2.2807,-2.281,-2.2856,-2.2855,-2.2794,-2.2795,-2.2796,-2.2797,0,0,0,0,0,0,0,-2.2869,-2.2871,-2.2896,-2.2867,-2.2862,-2.2843,-2.284,-2.2868,-2.2832,-2.2824,-2.2818,-2.2817,-2.2805,-2.2808,-2.2809,-2.2855,-2.2794,-2.2796,-2.2797,-2.2798,-2.2956,-2.2959,0,0,0,0,0,0,-2.2875,-2.2871,-2.2896,-2.2895,-2.2857,-2.2846,-2.2843,-2.2852,-2.2832,-2.2826,-2.2819,-2.2813,-2.2806,-2.2807,-2.2808,-2.2888,-2.2796,-2.2798,-2.2799,-2.2953,-2.2957,-2.296,0,0,0,0,0,0,-2.2874,-2.2878,-2.2897,-2.2882,-2.2883,-2.2849,-2.2861,-2.2853,-2.2857,-2.2829,-2.2822,-2.283,-2.2804,-2.2806,-2.2845,-2.2886,-2.2799,-2.2801,-2.295,-2.2954,-2.2958,-2.3048,0,0,0,0,0,0,-2.2873,-2.2878,-2.2904,-2.2883,-2.2884,-2.2934,-2.2863,-2.2855,-2.2861,-2.2853,-2.2837,-2.2831,-2.2802,-2.2843,-2.2847,-2.2887,-2.2802,-2.2946,-2.2952,-2.2957,-2.3041,-2.3054,-2.3066,0,0,0,0,0,-2.2872,-2.293,-2.2905,-2.2909,-2.2915,-2.2936,-2.2937,-2.2902,-2.2864,-2.289,-2.2872,-2.2832,-2.2881,-2.2847,-2.2852,-2.2893,-2.2943,-2.295,-2.2957,-2.3035,-2.3052,-2.3066,0,0,0,0,0,0,-2.2957,-2.2926,-2.2899,-2.2951,-2.2947,-2.2923,-2.2954,-2.292,-2.2927,-2.292,-2.2876,-2.2873,-2.2919,-2.291,-2.2873,-2.2959,-2.2905,-2.2913,-2.2963,-2.2979,-2.2992,-2.2993,-2.2804,0,0,0,0,0,-2.2981,-2.3001,-2.2973,-2.3022,-2.3021,-2.2988,-2.2996,-2.2969,-2.2963,-2.2961,-2.2946,-2.2942,-2.2956,-2.2967,-2.2979,-2.3039,-2.3034,-2.3069,-2.3082,-2.3093,-2.3101,-2.3132,-2.3148,-2.2982,-2.2982,-2.2982,0,0,-2.3033,-2.3018,-2.3033,-2.3038,-2.3032,-2.3053,-2.2987,-2.3013,-2.3029,-2.2965,-2.3002,-2.299,-2.2983,-2.3033,-2.3055,-2.3027,-2.3145,-2.3101,-2.311,-2.3112,-2.3141,-2.3156,-2.317,-2.2987,-2.2986,-2.2985,0,0,-2.3137,-2.3128,-2.3167,-2.3162,-2.3153,-2.3131,-2.314,-2.3121,-2.3111,-2.3147,-2.31,-2.3118,-2.3144,-2.3141,-2.3143,-2.3245,-2.3209,-2.325,-2.3317,-2.3349,-2.3362,-2.3373,-2.3411,-2.3424,-2.3258,-2.3258,-2.3258,0,-2.3202,-2.3232,-2.3192,-2.3221,-2.3225,-2.3167,-2.3207,-2.3204,-2.32,-2.3204,-2.3173,-2.3204,-2.3195,-2.3244,-2.3269,-2.3272,-2.3283,-2.3252,-2.3363,-2.3374,-2.3384,-2.3419,-2.3433,-2.3263,-2.3263,-2.3262,-2.3262,0,-2.3313,-2.3335,-2.3368,-2.3364,-2.3372,-2.3406,-2.3371,-2.3384,-2.3356,-2.3337,-2.3374,-2.3361,-2.337,-2.3379,-2.3352,-2.3424,-2.3408,-2.3371,-2.3316,-2.3405,-2.3438,-2.3451,-2.327,-2.3269,-2.3267,-2.3266,0,0,-2.3472,-2.3445,-2.3458,-2.3455,-2.3441,-2.3457,-2.3489,-2.3496,-2.3508,-2.3506,-2.3533,-2.3555,-2.3521,-2.3523,-2.3495,-2.3522,-2.3606,-2.3482,-2.3481,-2.3506,-2.3685,-2.3714,-2.3731,-2.3581,-2.3583,-2.3585,-2.3686,0,-2.3572,-2.3625,-2.3589,-2.3647,-2.3667,-2.3613,-2.364,-2.3635,-2.3618,-2.3632,-2.3613,-2.3631,-2.3583,-2.3584,-2.3609,-2.359,-2.3641,-2.3582,-2.3606,-2.3607,-2.3611,-2.3747,-2.3778,-2.3874,-2.3698,-2.3701,-2.3702,0,-2.3697,-2.3701,-2.3761,-2.3742,-2.3749,-2.3775,-2.3778,-2.3793,-2.3785,-2.3771,-2.3773,-2.3738,-2.3769,-2.3714,-2.3756,-2.3716,-2.3724,-2.3716,-2.3719,-2.3721,-2.3661,-2.3754,-2.3903,-2.3918,-2.3721,-2.372,-2.3719,0,-2.3808,-2.3828,-2.3866,-2.3866,-2.3845,-2.3864,-2.3856,-2.3846,-2.3852,-2.3856,-2.386,-2.3867,-2.3871,-2.3878,-2.3846,-2.3809,-2.3892,-2.3835,-2.3882,-2.3883,-2.3903,-2.3903,-2.4057,-2.3906,-2.3906,-2.3906,-2.3905,0,-2.3925,-2.3965,-2.3916,-2.394,-2.3982,-2.3941,-2.3984,-2.3971,-2.3962,-2.3982,-2.3935,-2.3956,-2.3912,-2.3928,-2.3904,-2.3942,-2.3944,-2.3934,-2.3928,-2.3939,-2.3941,-2.3945,-2.3938,-2.3909,-2.3909,-2.3908,-2.3907,0,-2.4057,-2.4026,-2.4065,-2.4041,-2.4036,-2.4068,-2.4048,-2.407,-2.4049,-2.4076,-2.408,-2.4048,-2.4064,-2.4033,-2.4046,-2.4029,-2.4083,-2.4066,-2.4086,-2.4081,-2.4131,-2.4127,-2.4294,-2.4314,-2.415,-2.4151,-2.4152,0,-2.4135,-2.4163,-2.4142,-2.4152,-2.4147,-2.4164,-2.417,-2.413,-2.4139,-2.4132,-2.4155,-2.4167,-2.4175,-2.4205,-2.4183,-2.4193,-2.4175,-2.4233,-2.4177,-2.4188,-2.4178,-2.4177,-2.418,-2.4245,-2.4247,-2.4249,-2.425,0,-2.4276,-2.4259,-2.4269,-2.4275,-2.4283,-2.4286,-2.4285,-2.4296,-2.4253,-2.4266,-2.4282,-2.4288,-2.43,-2.4314,-2.4318,-2.431,-2.4274,-2.4268,-2.428,-2.4293,-2.4304,-2.43,-2.4119,-2.4265,-2.4263,-2.4262,-2.4262,-2.4261,-2.4383,-2.4407,-2.4395,-2.4409,-2.4403,-2.4404,-2.4423,-2.4404,-2.4416,-2.4423,-2.4398,-2.442,-2.4412,-2.4414,-2.441,-2.4427,-2.4401,-2.4418,-2.4422,-2.4427,-2.4436,-2.43,-2.4427,-2.4427,-2.4426,-2.4426,-2.4426,0,-2.4523,-2.4513,-2.4525,-2.4525,-2.4536,-2.4499,-2.4496,-2.4508,-2.4527,-2.4522,-2.453,-2.4549,-2.4562,-2.4541,-2.455,-2.4568,-2.4551,-2.4571,-2.4571,-2.457,-2.4458,-2.4447,-2.4585,-2.4585,-2.4585,-2.4585,-2.4584,-2.4584,-2.4597,-2.4635,-2.4616,-2.4651,-2.464,-2.466,-2.4662,-2.4662,-2.4657,-2.468,-2.469,-2.4676,-2.4664,-2.4672,-2.4682,-2.4676,-2.4682,-2.4709,-2.4697,-2.4593,-2.4577,-2.4563,-2.4553,-2.471,-2.471,-2.4807,-2.4808,-2.4809]}]]